Regional Weather Roundup
Issued by NWS

Home | Current Version | Previous Version | Text Only | Print | Product List | Glossary Off
Versions: 1 2 3 4 5 6 7 8 9 10 11 12 13 14 15 16 17 18 19 20 21 22 23 24 25 26 27 28 29 30 31 32 33 34 35 36 37 38 39 40 41 42 43 44 45 46 47 48 49 50

000
ASUS43 KFSD 210010
RWRSD

WEATHER ROUNDUP FOR SOUTH DAKOTA
NATIONAL WEATHER SERVICE SIOUX FALLS SD
600 PM CST MON NOV 20 2017

NOTE: "FAIR" INDICATES FEW OR NO CLOUDS BELOW 12,000 FEET WITH NO
SIGNIFICANT WEATHER AND/OR OBSTRUCTIONS TO VISIBILITY.


SDZ001>005-009-010-012>017-210100-
NORTHWEST AND NORTH CENTRAL SOUTH DAKOTA

CITY           SKY/WX    TMP DP  RH WIND       PRES   REMARKS
BUFFALO          N/A     41  26  55 NW15      29.62R
FAITH            N/A     45  24  43 NW13      29.65R
MOBRIDGE       CLEAR     50  27  40 N18G26    29.57R
$$

SDZ012>016-024>037-041>051-057-063-072>074-210100-
SOUTHWEST AND SOUTH CENTRAL SOUTH DAKOTA

CITY           SKY/WX    TMP DP  RH WIND       PRES   REMARKS
RAPID CTY ARPT CLEAR     50  22  33 N18       29.69R
PIERRE         PTCLDY    49  25  39 W14       29.62R
CUSTER         CLEAR     42  17  36 VRB6      29.76R
ELLSWORTH AFB  CLEAR     50  23  34 N10       29.70R
PHILIP         CLEAR     49  23  36 N15       29.68R
PINE RIDGE     CLEAR     52  19  27 W10       29.71R
SPEARFISH      FAIR      48  23  37 NW8       29.71R
WINNER         FAIR      51  20  29 NW7       29.65R
$$

SDZ004>011-016>023-039-040-210100-
NORTHEAST SOUTH DAKOTA

CITY           SKY/WX    TMP DP  RH WIND       PRES   REMARKS
ABERDEEN       CLEAR     51  23  33 W17       29.55R
WATERTOWN      CLEAR     35  24  64 SW9       29.52R WCI  28
BROOKINGS      CLOUDY    42  25  50 SW9       29.55R
SISSETON         N/A     50  23  34 NW20G25   29.48R
$$

SDZ017-020-022-023-036>040-048>070-210100-
SOUTHEAST SOUTH DAKOTA

CITY           SKY/WX    TMP DP  RH WIND       PRES   REMARKS
SIOUX FALLS    MOCLDY    46  27  47 SW6       29.56R
HURON          CLEAR     39  20  46 NW10      29.57R
CHAMBERLAIN    CLOUDY    55  22  28 NW9       29.61R
MITCHELL       CLOUDY    51  23  33 W12       29.58R
YANKTON        CLOUDY    48  27  44 SW5       29.60R
$$

ABBREVIATIONS USED IN REMARKS
   TC - TEMPERATURE IN CELSIUS
  WCI - WIND CHILL INDEX
   HX - HEAT INDEX
  VSB - VISIBILITY





USA.gov is the U.S. government's official web portal to all federal, state and local government web resources and services.